Location: Bergnershof
(48.9468°N, 10.9431°E)
Time: 23:25:01
(UTC+00:00)

USA 306 - Pass Details

Date: 03 March 2021
Orbit: 564 x 577 km, 54.0° (Epoch: 13 April)

Event Time Altitude Azimuth Distance (km) Brightness Sun altitude
Rises 18:20:13 0° 277° (W) 2,773 8.5 -13.5°
Reaches altitude 10° 18:22:34 10° 285° (WNW) 1,874 6.9 -13.9°
Maximum altitude 18:26:37 42° 356° (N) 826 3.8 -14.5°
Enters shadow 18:29:14 19° 59° (ENE) 1,362 4.4 -14.9°
